COSMOS 1275 DEB

Satellite information

Favourite Embed

Satellite Type and Status

DEBRISIN ORBIT

Key statistics

Satellite COSMOS 1275 DEB at a glance.

Uptime

16044

Days in orbit

Revolutions

≈ 14.3

Per day

Orbit

LEO

Low Earth Orbit

Inclination

82.9

Latest

Satellite identification and parameters

Extended collection of information and parameters for COSMOS 1275 DEB.

Object identification

Identified? True

Debris? True

Object name: COSMOS 1275 DEB

International designator: 1981-053BH

Object number (NORAD): 12713

Object ID (CCSDS): 12713

Country: COMMONWEALTH OF INDEPENDENT STATES (CIS)

Current information (Y/N): Y

RCS size: SMALL

Orbital parameters

Period: 100.763 minutes

Inclination: 82.9493 deg

SMA: 7172.894 km

Apoapsis: 805.835 km

Periapsis: 783.683 km

RAAN: 0.5486 deg

Eccentricy: 0.0015442

Argument of periapsis: 310.7182 deg

Mean anomaly: 49.2662 deg

Mean motion: 14.29095128 rev/day

Mean motion (dot): 0.00003488 rev/day2

B* drag term: 0.0013685 1/REarth

Two-line elements (TLE)

Creation date: May 8, 2025, 3:01 a.m.

Reference frame: TEME

Reference center: EARTH

Epoch: May 7, 2025, 2:11 a.m. UTC

TLE line 0: 0 COSMOS 1275 DEB

TLE line 1: 1 12713U 81053BH 25127.09139047 .00003488 00000-0 13685-2 0 9999

TLE line 2: 2 12713 82.9493 0.5486 0015442 310.7182 49.2662 14.29095128232920

Live tracking on map

Real-time ground track for satellite COSMOS 1275 DEB.

In-orbit conjunctions

A list of the most updated potential collisions computed for object COSMOS 1275 DEB.

Target Orbit TCA Probability of collision Miss distance Type
CZ-6A DEB LEO 2025-02-03 08:49:14 0.0002378872 376.0 (m) DEBRIS
NOAA 10 SSO 2024-12-08 07:29:03 0.0001617971 450.0 (m) PAYLOAD
NOAA 16 DEB SSO 2024-11-13 18:28:02 0.0002280237 870.0 (m) DEBRIS
FENGYUN 1C DEB SSO 2024-11-09 05:07:06 0.0004561912 209.0 (m) DEBRIS
CZ-6A DEB LEO 2024-10-15 19:27:24 0.0003118972 508.0 (m) DEBRIS

Associated space launch

Navigation satellite providing location information for the Tsiklon-B navigation system

COSMOS 1275 DEB was lifted into orbit during the mission ‘Kosmos-3M | Parus 27’, on board a Kosmos-3M space rocket.

The launch took place on June 4, 1981, 3:41 p.m. from 132/2.

For more information about the launch, click the button.

Launch to space Kosmos-3M | Parus 27
Kosmos-3M | Parus 27

Agency: N/A

Status: Launch Successful

Launch date: June 4, 1981, 3:41 p.m. UTC

Rocket: Kosmos-3M

Launch pad: 132/2

Location: Plesetsk Cosmodrome, Russian Federation

...

Latest news about this satellite

There are no fresh news available about this satellite. Check back as we update our databases every day.


Newsletter sign-up

Weekly statistics, charts and insights to help you stay on top of the space industry.